Location: Rio Negrinho
(26.2394°S, 49.4999°W)
Time: 02:38:50
(UTC+00:00)

SEDSat Delta rocket - Pass Details

Date: 01 October 2020
Orbit: 533 x 1000 km, 31.4° (Epoch: 20 October)

Event Time Altitude Azimuth Distance (km) Brightness Sun altitude
Rises 23:14:49 0° 291° (WNW) 3,319 7.5 -26.4°
Reaches altitude 10° 23:17:29 10° 291° (WNW) 2,310 6.6 -26.9°
Enters shadow 23:22:03 62° 294° (WNW) 791 3.6 -27.9°
